Location: Zagreb
(45.8000°N, 16.0000°E)
Time: 09:43:54
(UTC+02:00)

X-37B - Pass Details

Date: 28 June 2022
Orbit: 328 x 343 km, 45.0° (Epoch: 12 August)

Event Time Altitude Azimuth Distance (km) Brightness Sun altitude
Rises 23:29:55 0° 258° (WSW) 2,092 4.4 -18.0°
Reaches altitude 10° 23:31:55 10° 255° (WSW) 1,260 3.2 -18.2°
Enters shadow 23:32:59 21° 252° (WSW) 829 2.2 -18.2°
